Home   Weather   Grudziądz   Past weeks

Flag for Poland Past Weather in Grudziądz, Poland — Yesterday and Last 2 Weeks

Now
22 °F

Fog.


Feels Like: 22 °F
Forecast: 22 / 28 °F
Wind: 2 mph from South

Location: Torun

Current Time: Jan 18, 2017 at 7:26:32 pm

Latest Report: Jan 18, 2017 at 6:00 pm


Visibility: 1 mi

Pressure: 30.74 "Hg

Humidity: 97%

Dew Point: 22 °F

Location of GrudziądzLocation

Past Weather in Grudziądz — Graph

°F

Grudziądz Temperature Yesterday

Maximum temperature yesterday: 32 °F (at 1:00 pm)
Minimum temperature yesterday: 21 °F (at 9:00 am)
Average temperature yesterday: 26 °F

High & Low Weather Summary for the Past Weeks

 TemperatureHumidityPressure
High38 °F (Jan 13, 3:00 pm)100% (Jan 17, 9:00 pm)30.76 "Hg (Jan 17, 9:00 pm)
Low0 °F (Jan 7, 3:00 am)41% (Jan 8, 2:00 pm)29.09 "Hg (Jan 4, 2:00 pm)
Average25 °F85%30.05 "Hg
* Reported Jan 3 6:00 pm — Jan 18 6:00 pm, Grudziądz, Weather by CustomWeather, © 2017

Note: Actual official high and low records may vary slightly from our data, if they occured in-between our weather recording intervals... More about our weather records

Advertising

Grudziądz Weather History for the Previous 24 Hours

Scroll right to see more
 ConditionsComfort  
Time TempWeatherWind HumidityBarometerVisibility
6:00 pm
Wed, Jan 18
22 °FFog.2 mph97%30.74 "Hg1 mi
5:00 pm23 °FFog.2 mph95%30.75 "Hg1 mi
4:00 pm24 °FFog.2 mph95%30.75 "Hg1 mi
3:00 pm24 °FFog.3 mph94%30.74 "Hg1 mi
2:00 pm25 °FFog.2 mph92%30.74 "Hg2 mi
1:00 pm27 °FFog.2 mph91%30.74 "Hg2 mi
12:00 pm27 °FFog.2 mph98%30.75 "Hg3 mi
11:00 am24 °FFog.2 mph98%30.76 "Hg2 mi
10:00 am22 °FFog.2 mph97%30.76 "Hg2 mi
9:00 am20 °FFog.1 mph97%30.76 "Hg1 mi
8:00 am20 °FFog.1 mph100%30.74 "Hg1 mi
7:00 am19 °FFog.1 mph100%30.73 "Hg1 mi
6:00 am18 °FFog.1 mph96%30.73 "Hg1 mi
5:00 am20 °FFog.1 mph100%30.71 "Hg1 mi
4:00 am21 °FFog.1 mph100%30.71 "Hg0 mi
3:00 am22 °FFog.1 mph100%30.72 "Hg0 mi
2:00 am22 °FFog.1 mph100%30.71 "Hg0 mi
1:00 am24 °FFog.No wind100%30.71 "Hg0 mi
12:00 am23 °FFog.1 mph100%30.70 "Hg0 mi
11:00 pm
Tue, Jan 17
22 °FFog.1 mph100%30.69 "Hg0 mi
10:00 pm22 °FFog.1 mph100%30.69 "Hg1 mi
9:00 pm23 °FFog.1 mph100%30.68 "Hg0 mi
8:00 pm24 °FFog.1 mph98%30.67 "Hg1 mi
7:00 pm22 °FFog.1 mph96%30.66 "Hg1 mi
Weather by CustomWeather, © 2017

See weather overviewHow to use our weather pages